"Pseudo-MPEC" for P11C80N

Created 2022 Nov 26 13:22:19 UT using Find_Orb

Click here for an explanation of pseudo-MPECs

 
 Astrometry: 
     P11C80N* C2022 11 24/SsvPd(WVLj,#vgP1,7nts5VCP`w7JP0FZN(7D^=5DA1eqvr/n@)F51
     P11C80N  C2022 11 24AV:d`Tw$l.$M\,[D\pi#[.t1]GAGW5fqi(nHtVL!m3@NWx%Y/SjiF51
     P11C80N  C2022 11 24kJj2rGG^jfg8:weDx\L/^J0=]sp(b;RSMJTNbM?(nWCEv9jNu^3AF51
     P11C80N 3C2022 11 25H*$uT,7p9jC=yLk.t+?yDc'se`Ggj%bEfo%D8Bw#/1Qfpq?;4F4:T14
     P11C80N 3C2022 11 25fu;-eupdaJY@HLFj?IT*!@L9;:_*/%YJ3xy]c`-vZUHw!mp%GTZAT14
     P11C80N 3C2022 11 25T`ZJs./Sg4fe3I(NV%.e'_At/Fucr@Pv@$**WKw6+FsYVxBu%[kbT14
     P11C80N 3C2022 11 25u.BlZvV]T:AAstrometryee9bVDbO$r'n,[0`M65I(ofX#3tDR`7T14
     P11C80N $C2022 11 25;p[Wy9P9D2u.M!5cj_E:%#t\jnZw.q8$redacted;Ro#lclicky]J04
     P11C80N $C2022 11 25+wJZ`w6u`4_tmnO-c/^qvP3E-%ykdvoy\l5X,oFkj:-8iherenUSJ04
     P11C80N KC2022 11 26.17290404 04 38.219+33 30 56.95   ~BQ4q       VNEOCPI52
     P11C80N KC2022 11 26.17610704 04 38.939+33 30 59.76   ~BQ4q 21.20GVNEOCPI52
     P11C80N KC2022 11 26.17754604 04 39.263+33 31 00.84   ~BQ4q 21.18GVNEOCPI52
     P11C80N KC2022 11 26.18074904 04 39.839+33 31 03.11   ~BQ4q 20.96GVNEOCPI52
     P11C80N KC2022 11 26R'3(1F(%'cDWXC:$2L0'LUKf=0escTPew\^VcGuZwi8/o#for7AXH21
     P11C80N KC2022 11 26bOZr;.5Ybe3Npfs33MbGKQ`4FcKhuBPKexplanationf07yMVf!sH21
     P11C80N KC2022 11 26\AlJTs2Vxdp3d38R.Z\Y7^yGORt,?O%!pK%%xl5wV+0@HM]c:tH9H21
     P11C80N 1C2022 11 26.25830404 04 54.433+33 31 57.04   ~BQ77 20.99GVNEOCPG96
     P11C80N 1C2022 11 26.26870804 04 56.402+33 32 03.37   ~BQ77 21.65GVNEOCPG96
     P11C80N 1C2022 11 26.27394704 04 57.353+33 32 06.43   ~BQ77 21.14GVNEOCPG96

Station data:
(F51) Pan-STARRS 1, Haleakala  (N20.707234 W156.255910)  US/Hawaii.
   Observers J. Bulger, T. Lowe, A. Schultz, M. Willman. Measurers K.
   Chambers, S. Chastel, T. de Boer, L. Denneau, J. Fairlamb, H. Flewelling,
   M. Huber, C.-C. Lin, E. Magnier, Y. Ramanjooloo, R. Wainscoat, R. Weryk.
   1.8-m Ritchey-Chrétien + CCD.
(G96) Mt. Lemmon Survey  (N32.442751 W110.788720)  US/Arizona.  Observers T.
   A. Pruyne, B. M. Africano, E. J. Christensen, G. A. Farneth, D. C. Fuls,
   A. R. Gibbs, A. D. Grauer, H. Gröller, J. A. Johnson, R. A. Kowalski, S.
   M. Larson, G. J. Leonard, D. Rankin, R. L. Seaman, F. C. Shelly, K. W.
   Wierzchoś. 1.5-m reflector + 10K CCD.
(H21) Astronomical Research Observatory, Westfield  (N39.483054 W87.968270)
   US/Illinois.  Observer R. Holmes. Measurers S. Foglia, L. Buzzi, T.
   Linder, R. Holmes. 0.76-m f/3.0 astrograph + CCD0.81-m f/4.0 astrograph +
   CCD0.61-m f/4.5 astrograph + CCD0.40-m f/5.32 astrograph + CCD.
(I52) Steward Observatory, Mt. Lemmon Station  (N32.442544 W110.788920)
   US/Arizona.  Observers T. A. Pruyne, B. M. Africano, E. J. Christensen, G.
   A. Farneth, D. C. Fuls, A. R. Gibbs, A. D. Grauer, H. Gröller, J. A.
   Johnson, R. A. Kowalski, S. M. Larson, G. J. Leonard, D. Rankin, R. L.
   Seaman, F. C. Shelly, K. W. Wierzchoś. 1.0-m reflector + CCD.
(J04) ESA Optical Ground Station, Tenerife  (N28.300922 W16.511830)  Canary
   Islands (Spain).  Observer D. Abreu. Measurers M. Micheli, D. Koschny, E.
   Schwab, M. Busch, A. Knöfel. 1.0-m f/4.4 reflector + CCD.
(T14) Mauna Kea-UH/Tholen NEO Follow-Up (CFHT)  (N19.825252 W155.468876)
   US/Hawaii. 3.6-m Canada-France-Hawaii Telescope.

Orbital elements:  P11C80N
   Perihelion 2023 Jan 14.51185 +/- 0.0347 TT = 12:17:03 (JD 2459959.01185)
Epoch 2022 Nov 26.0 TT = JDT 2459909.5   Earth MOID: 0.0010   Ma: 0.0320
M 342.02089088 +/- 0.12             (J2000 ecliptic)          AutoNEOCP
n   0.36312740 +/- 0.00233          Peri.  237.96486 +/- 0.047
a   1.94579328 +/- 0.00831          Node   254.01831 +/- 0.015
e   0.5789248 +/- 0.00212           Incl.    5.19788 +/- 0.017
P   2.71/991.37d           H 26.1   G  0.15   U  8.7
q 0.81932513 +/- 0.000635    Q 3.07226142 +/- 0.0172
From 19 observations 2022 Nov. 24-26 (42.1 hr); mean residual 0".29
Residuals in arcseconds: 
221124 F51  .10+  .02+    221125 J04  .23-  .12-    221126 H21  .23-  .29+    
221124 F51  .10-  .14+    221125 J04  .33+  .32+    221126 H21  .12-  .38+    
221124 F51  .06-  .06+    221126 I52  1.0-  .45-    221126 G96  .09-  .06+    
221125 T14  .02-  .01-    221126 I52  .23+  .08-    221126 G96  .41+  .02+    
221125 T14  .01+  .03-    221126 I52  .80+  .09-    221126 G96  .17+  .05-    
221125 T14  .02-  .00     221126 I52  .25+  .24-    
221125 T14  .03+  .01+    221126 H21  .60-  .23+    

Ephemerides (geocentric):
Date (UTC) HH   RA             Dec           delta  r     elong  mag " sig PA
---- --------  ------------   ------------  ------ ------ -----  --- --------
2022 11 26 13  04 05 59.995   +33 34 32.01  .07742 1.0627 167.4 21.4 .379  85
2022 11 26 14  04 06 10.251   +33 34 55.30  .07708 1.0623 167.4 21.4 .422  85
2022 11 26 15  04 06 20.599   +33 35 18.69  .07674 1.0620 167.4 21.4 .468  85
2022 11 26 16  04 06 31.041   +33 35 42.16  .07641 1.0617 167.4 21.4 .515  84
2022 11 26 17  04 06 41.578   +33 36 05.72  .07607 1.0613 167.4 21.4 .564  84
2022 11 26 18  04 06 52.211   +33 36 29.38  .07573 1.0610 167.4 21.4 .616  84
2022 11 26 19  04 07 02.941   +33 36 53.12  .07539 1.0606 167.4 21.4 .669  84
2022 11 26 20  04 07 13.770   +33 37 16.96  .07506 1.0603 167.4 21.4 .725  84
2022 11 26 21  04 07 24.699   +33 37 40.90  .07472 1.0600 167.4 21.3 .783  84
2022 11 26 22  04 07 35.729   +33 38 04.93  .07438 1.0596 167.4 21.3 .843  84
2022 11 26 23  04 07 46.862   +33 38 29.05  .07405 1.0593 167.4 21.3 .905  84
2022 11 27 00  04 07 58.100   +33 38 53.27  .07371 1.0590 167.4 21.3 .969  84
2022 11 27 01  04 08 09.442   +33 39 17.59  .07337 1.0586 167.4 21.3 1.04  84
2022 11 27 02  04 08 20.892   +33 39 42.01  .07304 1.0583 167.4 21.3 1.11  84
2022 11 27 03  04 08 32.450   +33 40 06.52  .07270 1.0579 167.4 21.3 1.18  84
2022 11 27 04  04 08 44.118   +33 40 31.13  .07236 1.0576 167.4 21.3 1.25  84
2022 11 27 05  04 08 55.898   +33 40 55.84  .07203 1.0573 167.4 21.3 1.33  83
2022 11 27 06  04 09 07.790   +33 41 20.65  .07169 1.0569 167.4 21.2 1.41  83
2022 11 27 07  04 09 19.798   +33 41 45.56  .07136 1.0566 167.4 21.2 1.49  83
2022 11 27 08  04 09 31.921   +33 42 10.56  .07102 1.0563 167.4 21.2 1.58  83
2022 11 27 09  04 09 44.163   +33 42 35.68  .07068 1.0559 167.4 21.2 1.67  83
2022 11 27 10  04 09 56.523   +33 43 00.89  .07035 1.0556 167.4 21.2 1.76  83
2022 11 27 11  04 10 09.006   +33 43 26.20  .07001 1.0553 167.4 21.2 1.85  83
2022 11 27 12  04 10 21.611   +33 43 51.62  .06968 1.0549 167.4 21.2 1.95  83
2022 11 27 13  04 10 34.341   +33 44 17.14  .06934 1.0546 167.4 21.2 2.05  83
2022 11 27 14  04 10 47.197   +33 44 42.76  .06901 1.0542 167.4 21.2 2.16  83
2022 11 27 15  04 11 00.182   +33 45 08.49  .06867 1.0539 167.4 21.1 2.26  83
2022 11 27 16  04 11 13.297   +33 45 34.33  .06834 1.0536 167.4 21.1 2.38  83
2022 11 27 17  04 11 26.545   +33 46 00.26  .06800 1.0532 167.4 21.1 2.49  83
2022 11 27 18  04 11 39.926   +33 46 26.31  .06767 1.0529 167.4 21.1 2.61  83
2022 11 27 19  04 11 53.443   +33 46 52.46  .06733 1.0526 167.4 21.1 2.73  83
2022 11 27 20  04 12 07.099   +33 47 18.71  .06700 1.0522 167.4 21.1 2.86  83
2022 11 27 21  04 12 20.895   +33 47 45.07  .06666 1.0519 167.4 21.1 2.99  83
2022 11 27 22  04 12 34.833   +33 48 11.54  .06633 1.0516 167.4 21.1 3.12  83
2022 11 27 23  04 12 48.915   +33 48 38.12  .06599 1.0512 167.4 21.1 3.26  83
2022 11 28 00  04 13 03.144   +33 49 04.80  .06566 1.0509 167.4 21.0 3.40  83
2022 11 28 01  04 13 17.522   +33 49 31.59  .06532 1.0506 167.4 21.0 3.55  83
2022 11 28 02  04 13 32.051   +33 49 58.49  .06499 1.0502 167.4 21.0 3.70  83
2022 11 28 03  04 13 46.733   +33 50 25.50  .06466 1.0499 167.4 21.0 3.85  83
2022 11 28 04  04 14 01.571   +33 50 52.62  .06432 1.0496 167.4 21.0 4.01  83
2022 11 28 05  04 14 16.567   +33 51 19.84  .06399 1.0492 167.4 21.0 4.18  83
2022 11 28 06  04 14 31.724   +33 51 47.17  .06366 1.0489 167.4 21.0 4.35  83
2022 11 28 07  04 14 47.044   +33 52 14.61  .06332 1.0486 167.4 21.0 4.52  83
2022 11 28 08  04 15 02.529   +33 52 42.16  .06299 1.0482 167.4 21.0 4.70  83
2022 11 28 09  04 15 18.183   +33 53 09.82  .06266 1.0479 167.4 20.9 4.89  83
2022 11 28 10  04 15 34.008   +33 53 37.59  .06232 1.0476 167.4 20.9 5.08  83
2022 11 28 11  04 15 50.006   +33 54 05.46  .06199 1.0472 167.4 20.9 5.28  83
2022 11 28 12  04 16 06.181   +33 54 33.44  .06166 1.0469 167.4 20.9 5.48  83